(238964) = 1995 CQ4 = 2006 BJ117

Discovered at Kitt Peak on 2006-01-26 by Spacewatch.

Orbit

Orbit type: Main Belt

Note: WebGL enabled browser required.

epoch2024-03-31.0
epoch JD2460400.5
perihelion date2021-07-16.54582
perihelion JD2459412.04582
argument of perihelion (°)101.76719
ascending node (°)149.11643
inclination (°)5.15611
eccentricity0.0948471
perihelion distance (AU)2.1367350
Tisserand w.r.t. Jupiter3.5
ΔV w.r.t. Earth (km/sec)9.2
semimajor axis (AU)2.3606342
mean anomaly (°)268.60701
mean daily motion (°/day)0.27174450
aphelion distance (AU)2.585
period (years)3.63
P-vector [x]-0.32545464
P-vector [y]-0.89876543
P-vector [z]-0.29376856
Q-vector [x]0.94443175
Q-vector [y]-0.29382385
Q-vector [z]-0.14736422
absolute magnitude17.06
phase slope0.15
uncertainty0
referenceMPEC 2024-E73
observations used379
oppositions16
arc length (days)10625
first opposition used1995
last opposition used2024
residual rms (arc-secs)0.67
perturbers coarse indicatorM-v
perturbers precise indicator003Ek
first observation date used1995-02-01.0
last observation date used2024-03-05.0
computer nameMPCLINUX
JD of orbit computation2456847.862038
perihelion JD uncertainty (days)7.7537E-05
argument of perihelion uncertainty (°)3.8634E-05
ascending node uncertainty (°)3.2382E-05
inclination uncertainty (°)3.9580E-06
eccentricity uncertainty 3.3002E-08
perihelion distance uncertainty (AU)7.5234E-08
Minimum Orbit Intersection Distances (in AU)
for orbit epoch: 2460400.5, reference: E2024-GF4
Mercury1.67617
Venus1.41477
Earth1.1296
Mars0.59481
Jupiter2.43679
Saturn6.47304
Uranus16.0742
Neptune27.2758

Observations

386 total observations over interval: 1995 02 01.26792 – 2024 03 05.155451
These data are available for download (format description).

Date (UT) J2000 RA J2000 Dec Magn Location Ref
1995 02 01.26792 09 28 00.04 +12 57 26.7 19.4 V 691 – Steward Observatory, Kitt Peak-Spacewatch MPC 24846
1995 02 01.28993 09 27 58.76 +12 57 35.8   691 – Steward Observatory, Kitt Peak-Spacewatch MPC 24846
1995 02 01.31581 09 27 57.26 +12 57 45.9   691 – Steward Observatory, Kitt Peak-Spacewatch MPC 24846
1995 02 07.38071 09 22 03.75 +13 39 35.1   691 – Steward Observatory, Kitt Peak-Spacewatch MPC 24846
1995 02 07.40270 09 22 02.43 +13 39 44.7 19.5 V 691 – Steward Observatory, Kitt Peak-Spacewatch MPC 24846
1995 02 07.42457 09 22 01.11 +13 39 53.4   691 – Steward Observatory, Kitt Peak-Spacewatch MPC 24846
1999 03 22.334360 12 58 10.408 +00 00 09.33 19.92 V 645 – Apache Point-Sloan Digital Sky Survey MPS 163941
1999 03 22.337832 12 58 10.237 +00 00 11.05 20.88   645 – Apache Point-Sloan Digital Sky Survey MPS 163941
2005 11 07.61071 10 01 14.137 +09 57 52.37 21.2 R 568 – Maunakea MPS 163282
2005 11 07.61985 10 01 14.790 +09 57 49.15 21.3 R 568 – Maunakea MPS 163282
2005 11 07.62893 10 01 15.454 +09 57 45.85 21.2 R 568 – Maunakea MPS 163282
2006 01 04.46058 10 45 36.72 +06 40 13.6 21.5 V G96 – Mt. Lemmon Survey MPS 163282
2006 01 04.46803 10 45 36.79 +06 40 14.5 21.3 V G96 – Mt. Lemmon Survey MPS 163282
2006 01 04.47548 10 45 36.86 +06 40 14.7 21.2 V G96 – Mt. Lemmon Survey MPS 163282
2006 01 04.48288 10 45 36.93 +06 40 15.4 21.3 V G96 – Mt. Lemmon Survey MPS 163282
2006 01 26.32281 10 42 02.95 +07 44 16.3 20.5 V 691 – Steward Observatory, Kitt Peak-Spacewatch MPS 162014
2006 01 26.34012 10 42 02.45 +07 44 21.4 20.7 V 691 – Steward Observatory, Kitt Peak-Spacewatch MPS 162014
2006 01 26.35741 10 42 01.92 +07 44 26.7 20.6 V 691 – Steward Observatory, Kitt Peak-Spacewatch MPS 162014
2006 01 30.34637 10 39 55.68 +08 06 23.8 20.6 V 691 – Steward Observatory, Kitt Peak-Spacewatch MPS 162014
2006 01 30.36658 10 39 54.90 +08 06 30.9 20.4 V 691 – Steward Observatory, Kitt Peak-Spacewatch MPS 162014
2006 01 30.38393 10 39 54.29 +08 06 36.8 20.5 V 691 – Steward Observatory, Kitt Peak-Spacewatch MPS 162014
2006 02 20.33986 10 23 21.30 +10 38 02.4 19.5 V G96 – Mt. Lemmon Survey MPS 163941
2006 02 20.35732 10 23 20.25 +10 38 10.6 19.7 V G96 – Mt. Lemmon Survey MPS 163941
2006 02 20.36419 10 23 20.04 +10 38 14.2 18.9 V G96 – Mt. Lemmon Survey MPS 163941
2006 02 20.43625 10 23 15.72 +10 38 46.3 19.2 V 703 – Catalina Sky Survey MPS 163941
2006 02 20.44569 10 23 15.14 +10 38 52.6 19.7 V 703 – Catalina Sky Survey MPS 163941
2006 02 20.45515 10 23 14.60 +10 38 56.7 20.0 V 703 – Catalina Sky Survey MPS 163941
2006 02 20.46463 10 23 14.06 +10 39 02.8 20.0 V 703 – Catalina Sky Survey MPS 163941
2006 02 22.41056 10 21 25.30 +10 54 40.5 19.4   704 – Lincoln Laboratory ETS, New Mexico MPS 163941
2006 02 22.42247 10 21 24.58 +10 54 48.2 19.4   704 – Lincoln Laboratory ETS, New Mexico MPS 163941
2006 02 22.43442 10 21 23.76 +10 54 52.6 19.5   704 – Lincoln Laboratory ETS, New Mexico MPS 163941
2007 08 09.22637 21 28 37.13 -13 02 35.1 19.7   704 – Lincoln Laboratory ETS, New Mexico MPS 212627
2007 08 09.23823 21 28 36.37 -13 02 40.9 19.6   704 – Lincoln Laboratory ETS, New Mexico MPS 212627
2007 08 09.25006 21 28 35.67 -13 02 46.2 19.5   704 – Lincoln Laboratory ETS, New Mexico MPS 212627
2007 08 09.26188 21 28 35.00 -13 02 51.6 19.9   704 – Lincoln Laboratory ETS, New Mexico MPS 212627
2007 09 10.22407 21 04 46.59 -16 27 23.8 20.0 V G96 – Mt. Lemmon Survey MPS 215160
2007 09 10.22956 21 04 46.45 -16 27 25.2 20.0 V G96 – Mt. Lemmon Survey MPS 215160
2007 09 10.23514 21 04 46.30 -16 27 26.9 20.3 V G96 – Mt. Lemmon Survey MPS 215160
2007 09 10.24071 21 04 46.12 -16 27 28.1 20.1 V G96 – Mt. Lemmon Survey MPS 215160
2007 10 04.19602 21 03 27.86 -17 29 36.0 20.6 V G96 – Mt. Lemmon Survey MPS 218101
2007 10 04.20312 21 03 27.93 -17 29 36.4 20.5 V G96 – Mt. Lemmon Survey MPS 218101
2007 10 04.21027 21 03 28.08 -17 29 36.3 20.3 V G96 – Mt. Lemmon Survey MPS 218101
2007 10 04.21732 21 03 28.18 -17 29 36.8 20.9 V G96 – Mt. Lemmon Survey MPS 218101
2008 12 31.28181 04 59 36.63 +15 22 50.8 20.4 V G96 – Mt. Lemmon Survey MPS 270163
2008 12 31.29060 04 59 36.20 +15 22 50.9 20.0 V G96 – Mt. Lemmon Survey MPS 270163
2008 12 31.29936 04 59 35.73 +15 22 51.8 20.4 V G96 – Mt. Lemmon Survey MPS 270163
2008 12 31.30807 04 59 35.19 +15 22 52.5 19.8 V G96 – Mt. Lemmon Survey MPS 270163
2010 03 15.43996 14 22 07.72 -07 27 00.5 20.5 V 691 – Steward Observatory, Kitt Peak-Spacewatch MPS 317939
2010 03 15.45257 14 22 07.60 -07 26 56.5 20.6 V 691 – Steward Observatory, Kitt Peak-Spacewatch MPS 317939
2010 03 15.46517 14 22 07.49 -07 26 53.5 20.6 V 691 – Steward Observatory, Kitt Peak-Spacewatch MPS 317939
2010 04 06.462413 14 12 34.010 -05 09 27.17 19.57 i F51 – Pan-STARRS 1, Haleakala MPS 338890
2010 04 06.471559 14 12 33.593 -05 09 23.20 19.55 i F51 – Pan-STARRS 1, Haleakala MPS 338890
2010 04 08.36597 14 11 09.88 -04 55 45.5 19.6 V G96 – Mt. Lemmon Survey MPS 320659
2010 04 08.38259 14 11 09.09 -04 55 38.6 19.6 V G96 – Mt. Lemmon Survey MPS 320659
2010 04 08.39096 14 11 08.70 -04 55 35.4 19.7 V G96 – Mt. Lemmon Survey MPS 320659
2010 04 12.22779 14 08 07.95 -04 27 49.9 19.8 V 691 – Steward Observatory, Kitt Peak-Spacewatch MPS 322232
2010 04 12.24542 14 08 07.04 -04 27 41.9 20.0 V 691 – Steward Observatory, Kitt Peak-Spacewatch MPS 322232
2010 04 12.26306 14 08 06.10 -04 27 34.7 19.8 V 691 – Steward Observatory, Kitt Peak-Spacewatch MPS 322232
2011 09 26.43058 00 52 00.639 -00 20 55.67 20.6 w F51 – Pan-STARRS 1, Haleakala MPS 394079
2011 09 26.44460 00 51 59.882 -00 21 02.18 20.5 w F51 – Pan-STARRS 1, Haleakala MPS 394079
2011 09 26.46514 00 51 58.764 -00 21 11.77 20.6 w F51 – Pan-STARRS 1, Haleakala MPS 394079
2011 09 26.47937 00 51 57.986 -00 21 18.44 20.6 w F51 – Pan-STARRS 1, Haleakala MPS 394079
2011 10 03.38257 00 45 50.29 -01 14 05.1 20.0 V G96 – Mt. Lemmon Survey MPS 394936
2011 10 03.38676 00 45 50.04 -01 14 06.8 20.0 V G96 – Mt. Lemmon Survey MPS 394936
2011 10 03.39087 00 45 49.78 -01 14 09.0 19.9 V G96 – Mt. Lemmon Survey MPS 394936
2011 10 03.39506 00 45 49.57 -01 14 10.6 19.9 V G96 – Mt. Lemmon Survey MPS 394936
2011 10 24.20803 00 28 41.91 -03 22 57.9 20.5 V G96 – Mt. Lemmon Survey MPS 397962
2011 10 24.21363 00 28 41.70 -03 22 59.3 20.5 V G96 – Mt. Lemmon Survey MPS 397962
2011 10 24.21923 00 28 41.41 -03 23 00.6 20.6 V G96 – Mt. Lemmon Survey MPS 397962
2011 10 24.22484 00 28 41.19 -03 23 02.1 20.4 V G96 – Mt. Lemmon Survey MPS 397962
2011 10 26.37075 00 27 17.016 -03 32 08.23 20.4 r F51 – Pan-STARRS 1, Haleakala MPS 397962
2011 10 26.38232 00 27 16.548 -03 32 10.91 20.6 r F51 – Pan-STARRS 1, Haleakala MPS 397962
2011 10 26.39545 00 27 16.023 -03 32 14.27 21.0 g F51 – Pan-STARRS 1, Haleakala MPS 397962
2013 01 17.48093 08 13 19.399 +15 40 42.13 20.1 w F51 – Pan-STARRS 1, Haleakala MPS 452094
2013 01 17.48303 08 13 19.263 +15 40 42.81 20.1 w F51 – Pan-STARRS 1, Haleakala MPS 452094
2013 01 17.49626 08 13 18.414 +15 40 46.78 20.2 w F51 – Pan-STARRS 1, Haleakala MPS 452094
2013 01 17.49839 08 13 18.277 +15 40 47.40 20.2 w F51 – Pan-STARRS 1, Haleakala MPS 452094
2013 01 17.51161 08 13 17.430 +15 40 51.34 20.2 w F51 – Pan-STARRS 1, Haleakala MPS 452094
2013 01 17.51378 08 13 17.294 +15 40 52.02 20.2 w F51 – Pan-STARRS 1, Haleakala MPS 452094
2013 01 17.52699 08 13 16.444 +15 40 55.95 20.2 w F51 – Pan-STARRS 1, Haleakala MPS 452094
2013 01 17.52923 08 13 16.307 +15 40 56.58 20.2 w F51 – Pan-STARRS 1, Haleakala MPS 452094
2013 01 18.65205 08 12 06.88 +15 46 36.3 20.3 R D29 – Purple Mountain Observatory, XuYi Station MPS 453081
2013 01 18.66889 08 12 05.80 +15 46 41.9 19.4 R D29 – Purple Mountain Observatory, XuYi Station MPS 453081
2013 01 18.68572 08 12 04.72 +15 46 46.2 20.5 R D29 – Purple Mountain Observatory, XuYi Station MPS 453081
2013 01 31.30297 07 59 04.12 +16 52 45.1 20.0 V G96 – Mt. Lemmon Survey MPS 453591
2013 01 31.30374 07 59 04.12 +16 52 44.7 20.3 V G96 – Mt. Lemmon Survey MPS 453591
2013 01 31.30881 07 59 03.80 +16 52 47.1 19.7 V G96 – Mt. Lemmon Survey MPS 453591
2013 01 31.30956 07 59 03.84 +16 52 46.9 19.8 V G96 – Mt. Lemmon Survey MPS 453591
2013 01 31.31458 07 59 03.44 +16 52 48.4 20.4 V G96 – Mt. Lemmon Survey MPS 453591
